Tracking 29892 objects as of 21-Nov-2024
HD Live streaming from Space Station
objects crossing your sky now

COSMOS 1562

Track COSMOS 1562 now!
10-day predictions
COSMOS 1562 is classified as:


NORAD ID: 15001
Int'l Code: 1984-052D
Perigee: 1,459.3 km
Apogee: 1,484.4 km
Inclination: 74.0 °
Period: 115.2 minutes
Semi major axis: 7842 km
RCS: 0.6935 m2 (medium)
Launch date: May 28, 1984
Source: Commonwealth of Independent States (former USSR) (CIS)
Launch site: PLESETSK MISSILE AND SPACE COMPLEX (PKMTR)
Your satellite tracking list
Your tracking list is empty




NASA's NSSDC Master Catalog

Two Line Element Set (TLE):
1 15001U 84052D   24325.56293666 -.00000002  00000-0  94081-4 0  9994
2 15001  74.0142 359.2324 0016035 264.4313 264.4387 12.49953251847108
Source of the keplerian elements: AFSPC